Dyersburg, TN

6:07 PM CST on December 15, 2019 (GMT -0600)
Dyersburg Municipal

Weather History for KDYR - October, 2019

Change the Weather History Date:

Thursday, October 31, 2019

  Actual Average Record
Temperature  
Mean Temperature 38 °F -  
Max Temperature 46 °F 64 °F 80 °F (2000)
Min Temperature 28 °F 46 °F 35 °F (2012)
Degree Days  
Heating Degree Days 27    
Moisture  
Dew Point 33 °F    
Average Humidity 82    
Maximum Humidity 100    
Minimum Humidity 58    
Precipitation  
Precipitation 0.61 in - - ()
Sea Level Pressure  
Sea Level Pressure 30.16 in    
Wind  
Wind Speed 10 mph ()    
Max Wind Speed 17 mph    
Max Gust Speed 26 mph    
Visibility 9.6 miles    
Events Rain    
Averages and records for this station are not official NWS values.
T = Trace of Precipitation, MM = Missing Value Source: Averaged Metar Reports

Daily Weather History Graph

Daily Weather History Graph

Search for Another Location

Airport or City:

Astronomy

Oct. 31, 2019 Rise Set
Actual Time 7:18 AM CDT 6:02 PM CDT
Civil Twilight 6:52 AM CDT 6:29 PM CDT
Nautical Twilight 6:22 AM CDT 6:59 PM CDT
Astronomical Twilight 5:52 AM CDT 7:29 PM CDT
Moon 11:02 AM CDT (10/31) 9:04 PM CDT (10/31)
Length of Visible Light 11h 36m
Length of Day
10h 44m
Waxing Crescent, 16% of the Moon is Illuminated
Oct 31
Waxing Crescent
Nov 4
First Quarter
Nov 12
Full
Nov 19
Last Quarter
Nov 26
New

Hourly Weather History & Observations

Time (CDT) Temp. Windchill Dew Point Humidity Pressure Visibility Wind Dir Wind Speed Gust Speed Precip Events Conditions
12:24 AM 46.4 °F 41.9 °F 46.4 °F 100% 29.91 in 4.0 mi NNW 9.2 mph - 0.02 in Rain Light Rain
12:56 AM 46.0 °F 41.9 °F 46.0 °F 100% 29.94 in 10.0 mi WNW 8.1 mph - 0.03 in Rain Light Rain
1:22 AM 46.4 °F 42.4 °F 44.6 °F 93% 29.93 in 9.0 mi NW 8.1 mph - 0.05 in Rain Rain
1:56 AM 44.1 °F 38.1 °F 44.1 °F 100% 29.94 in 10.0 mi NW 11.5 mph 19.6 mph 0.16 in Rain Rain
2:56 AM 42.1 °F 35.2 °F 41.0 °F 96% 29.98 in 3.0 mi WNW 12.7 mph 16.1 mph 0.28 in Rain Light Rain
3:56 AM 42.1 °F 36.6 °F 41.0 °F 96% 29.97 in 9.0 mi NW 9.2 mph 17.3 mph 0.10 in Rain Light Rain
4:47 AM 41.0 °F 33.5 °F 39.2 °F 93% 29.99 in 10.0 mi WNW 13.8 mph 18.4 mph 0.03 in Rain Light Rain
4:56 AM 41.0 °F 33.9 °F 39.9 °F 96% 30.01 in 10.0 mi WNW 12.7 mph 19.6 mph 0.03 in Rain Light Rain
5:52 AM 39.2 °F 31.6 °F 37.4 °F 93% 30.01 in 10.0 mi WNW 12.7 mph 19.6 mph 0.01 in Rain Light Rain
5:56 AM 39.9 °F 32.9 °F 37.0 °F 89% 30.04 in 10.0 mi WNW 11.5 mph 19.6 mph 0.01 in Rain Light Rain
6:03 AM 39.2 °F 31.6 °F 37.4 °F 93% 30.02 in 10.0 mi NW 12.7 mph - N/A   Overcast
6:56 AM 39.0 °F 30.6 °F 35.1 °F 86% 30.07 in 10.0 mi WNW 15.0 mph 21.9 mph N/A   Overcast
7:56 AM 37.0 °F 27.7 °F 34.0 °F 89% 30.10 in 10.0 mi West 16.1 mph 23.0 mph 0.00 in   Overcast
8:36 AM 37.4 °F 28.5 °F 33.8 °F 87% 30.11 in 10.0 mi WNW 15.0 mph 21.9 mph N/A   Overcast
8:56 AM 37.0 °F 28.9 °F 33.1 °F 86% 30.14 in 10.0 mi WNW 12.7 mph 20.7 mph N/A   Overcast
9:07 AM 37.4 °F 28.9 °F 33.8 °F 87% 30.12 in 10.0 mi WNW 13.8 mph - N/A   Overcast
9:19 AM 37.4 °F 29.8 °F 32.0 °F 81% 30.12 in 10.0 mi NW 11.5 mph 19.6 mph N/A   Overcast
9:56 AM 39.0 °F 29.9 °F 32.0 °F 76% 30.17 in 10.0 mi WNW 17.3 mph 26.5 mph N/A   Overcast
10:56 AM 37.9 °F 30.5 °F 30.0 °F 73% 30.20 in 10.0 mi WNW 11.5 mph 23.0 mph N/A   Overcast
11:56 AM 39.0 °F 31.0 °F 30.0 °F 70% 30.22 in 10.0 mi WNW 13.8 mph 24.2 mph N/A   Overcast
12:09 PM 39.2 °F 30.8 °F 30.2 °F 70% 30.21 in 10.0 mi WNW 15.0 mph 24.2 mph N/A   Overcast
12:32 PM 39.2 °F 30.2 °F 30.2 °F 70% 30.21 in 10.0 mi WNW 17.3 mph 24.2 mph N/A   Overcast
12:56 PM 39.0 °F 30.6 °F 30.9 °F 73% 30.25 in 10.0 mi WNW 15.0 mph 23.0 mph N/A   Overcast
1:06 PM 39.2 °F 30.2 °F 30.2 °F 70% 30.22 in 10.0 mi WNW 17.3 mph 23.0 mph N/A   Overcast
1:22 PM 39.2 °F 31.2 °F 30.2 °F 70% 30.23 in 10.0 mi West 13.8 mph 25.3 mph N/A   Overcast
1:51 PM 37.4 °F 27.8 °F 28.4 °F 70% 30.24 in 10.0 mi West 17.3 mph 25.3 mph N/A   Overcast
1:56 PM 37.9 °F 29.2 °F 28.9 °F 70% 30.27 in 10.0 mi West 15.0 mph 25.3 mph N/A   Overcast
2:56 PM 39.9 °F 32.5 °F 28.9 °F 65% 30.29 in 10.0 mi WNW 12.7 mph 19.6 mph N/A   Overcast
3:56 PM 39.9 °F 34.5 °F 28.0 °F 63% 30.29 in 10.0 mi NW 8.1 mph - N/A   Mostly Cloudy
4:56 PM 42.1 °F 37.1 °F 28.0 °F 58% 30.30 in 10.0 mi WNW 8.1 mph - N/A   Partly Cloudy
5:56 PM 39.9 °F 37.8 °F 28.0 °F 63% 30.31 in 10.0 mi NW 3.5 mph - N/A   Clear
6:56 PM 37.0 °F 34.5 °F 28.9 °F 73% 30.33 in 10.0 mi West 3.5 mph - N/A   Clear
7:56 PM 32.0 °F - 28.9 °F 88% 30.37 in 10.0 mi Calm Calm - N/A   Clear
8:56 PM 30.9 °F - 28.9 °F 92% 30.38 in 10.0 mi Calm Calm - N/A   Clear
9:56 PM 30.0 °F - 28.0 °F 92% 30.40 in 10.0 mi Calm Calm - N/A   Clear
10:56 PM 30.0 °F - 27.0 °F 88% 30.38 in 10.0 mi Calm Calm - N/A   Clear
11:56 PM 28.9 °F - 26.1 °F 89% 30.38 in 9.0 mi Calm Calm - N/A   Clear